Regional Weather Roundup
Issued by NWS Grand Forks, ND

Home | Current Version | Previous Version | Text Only | Print | Product List | Glossary Off
Versions: 1 2 3 4 5 6 7 8 9 10 11 12 13 14 15 16 17 18 19 20 21 22 23 24 25 26 27 28 29 30 31 32 33 34 35 36 37 38 39 40 41 42 43 44 45 46 47 48 49 50

000
ASUS43 KFGF 211310
RWRFGF
PRAIRIE TO PINES  WEATHER ROUNDUP
NATIONAL WEATHER SERVICE EASTERN NORTH DAKOTA/GRAND FORKS ND
700 AM CST TUE FEB 21 2017

 **SATELLITE DATA USED TO AUGMENT SKY COVER AT AUTOMATED STATIONS**
 *****  WEATHER ACROSS EASTERN NORTH DAKOTA  *****

CITY           SKY/WX    TMP DP  RH WIND       PRES   REMARKS
GRAND FORKS    FAIR      31  26  82 E6        29.71F
GRAND FRKS AFB FAIR      28  28 100 SE5       29.71F WCI  23
DEVILS LAKE    FAIR      29  27  92 SE8       29.67F WCI  21
FARGO          FAIR      34  31  88 SE10      29.71F
WAHPETON ARPT  FAIR      34  30  86 E7        29.73F
$$

 ***** WEATHER ACROSS CENTRAL AND WESTERN NORTH DAKOTA  *****

CITY           SKY/WX    TMP DP  RH WIND       PRES   REMARKS
BISMARCK       FAIR      32  28  85 SW6       29.68R
MINOT          FAIR      30  26  85 NW5       29.63S
JAMESTOWN      FAIR      35  33  92 S14       29.65S
MINOT AFB      FAIR      30  27  89 N6        29.63S WCI  24
GARRISON         N/A     28  25  88 W7        29.65R WCI  21
WILLISTON      FAIR      30  27  88 SW10      29.67R WCI  21
DICKINSON      FAIR      36  28  73 W10       29.68R
HETTINGER      FAIR      37  30  75 CALM      29.73R
$$

 *****  OTHER AIRPORT OBSERVATIONS IN OUR AREA  *****

CITY           SKY/WX    TMP DP  RH WIND       PRES   REMARKS
WALHALLA       NOT AVBL
GRAFTON AIRPOR PTSUNNY   28  28 100 NE6       29.74F FOG     WCI  22
VALLEY CITY AR FAIR      34  34 100 S13       29.68F WCI  25
CANDO          NOT AVBL
CAVALIER APRT    N/A     30  30 100 SE3       29.74S FOG
GWINNER        FAIR      37  34  87 SE5       29.69S
SHEYENNE NWR     N/A     30  28  92 SE6       29.95S WCI  24
ROLLA          CLOUDY    32  32 100 SE3       29.67F
 ***** THE ABOVE OBSERVATIONS ARE NON NWS ARE NOT QUALITY
       CONTROLLED AND MAY MIS-REPORT RAIN FOR SNOW...
$$

  *****  WEATHER ACROSS NORTHERN MINNESOTA  *****

CITY           SKY/WX    TMP DP  RH WIND       PRES   REMARKS
FLAG ISLAND    CLOUDY    32  30  93 SW7       29.72S
WARROAD        CLOUDY    30  27  86 S3        29.75S
ROSEAU         FOG       30  27  86 S5        29.76R VSB 3/4
HALLOCK        FOG       32  32 100 CALM      29.74R VSB 1
THF RVR FALLS  FAIR      30  29  96 SE3       29.74F FOG
BAUDETTE       CLOUDY    32  30  92 SW3       29.75R
WASKISH        FOG       34  32  93 SW6       29.77R VSB 3/4
CROOKSTON      FAIR      32  32 100 SE7       29.74F FOG
GREENBUSH NDAW   N/A     30  30 100 S5          N/A
$$
  *****  WEATHER ACROSS CENTRAL AND WEST MINNESOTA  *****

CITY           SKY/WX    TMP DP  RH WIND       PRES   REMARKS
FOSSTON        FAIR      30  30 100 S5        29.75F FOG
BEMIDJI        MOCLDY    31  31 100 S3        29.75F FOG
PARK RAPIDS    FAIR      31  28  89 SE3       29.77F FOG
ELBOW LAKE     FAIR      33  31  92 E10       29.75F
WADENA         FAIR      28  28 100 SE3       29.79S FOG
DETROIT LAKES  FAIR      32  30  93 SE7       29.76F FOG
MOORHEAD       FAIR      34  30  86 SE9       29.73F
FERGUS FALLS   FAIR      34  34 100 SE9       29.79F
MORRIS MN      FAIR      34  30  86 SE9       29.76F
STAPLES        FOG       28  28 100 CALM      29.80F VSB 1/4
$$
  *****  WEATHER ELSEWHERE ACROSS MINNESOTA  *****

CITY           SKY/WX    TMP DP  RH WIND       PRES   REMARKS
DULUTH         FOG       33  33 100 W12       29.79S VSB 3/4 WCI  24
INTRNTL FALLS  CLOUDY    33  30  88 SW3       29.75S
ELY            CLOUDY    34  32  93 W7        29.76S
CLOQUET        FOG       34  32  93 SW6       29.81S VSB 1
WHEATON        FAIR      36  30  80 SE9       29.76F
BRAINERD       FOG       30  30 100 SE5       29.82F VSB 1/4
HIBBING        CLOUDY    32  32 100 SW6       29.78S FOG
ALEXANDRIA     FAIR      32  30  92 SE7       29.79F
SAINT CLOUD    MOCLDY    30  29  96 SE6       29.84F FOG     WCI  24
MINNEAPOLIS    FOG       34  32  92 VRB3      29.89F VSB 1/2
$$

  *****  WEATHER ACROSS SOUTH DAKOTA  *****

CITY           SKY/WX    TMP DP  RH WIND       PRES   REMARKS
SIOUX FALLS    FAIR      40  34  79 S10       29.86F
BROOKINGS      FAIR      39  36  89 S15       29.78F
WATERTOWN      FAIR      34  32  92 S10       29.75F
HURON          FAIR      37  31  78 S14       29.76S
SISSETON         N/A     36  33  89 S8        29.72F
ABERDEEN       FAIR      35  29  78 S13       29.71F
MITCHELL       FAIR      41  31  67 S16       29.80F
PIERRE         FAIR      40  30  67 W9        29.74S
MOBRIDGE       FAIR      37  29  72 SE3       29.68F
RAPID CITY     FAIR      46  31  55 E5        29.75F
$$

  *****  SOME WEATHER IN NEARBY STATES *****

CITY           SKY/WX    TMP DP  RH WIND       PRES   REMARKS
GLASGOW MT     FAIR      32  29  88 VRB5      29.65S
GREAT FALLS MT CLOUDY    38  27  64 CALM      29.62F
CHEYENNE WY    FAIR      46  27  47 W28G37    30.02R
SCOTTSBLUFF NE FAIR      28  21  75 CALM      29.92F
OMAHA NE       FOG       34  30  85 SE5       30.00R VSB 1
DES MOINES IA  FAIR      37  36  96 CALM      29.96R
DAVENPORT IA   FAIR      45  43  93 NW3       29.95S
CHICAGO IL     LGT RAIN  55  52  89 SW3       29.92R FOG
EAU CLAIRE WI  CLOUDY    37  35  92 SW7       29.90R
LA CROSSE WI   CLOUDY    38  36  92 CALM      29.93S
$$

  *****  SOME NATIONAL WEATHER *****

CITY           SKY/WX    TMP DP  RH WIND       PRES   REMARKS
LA GUARDIA NY  PTSUNNY   37  19  48 NE7       30.39R
RALEIGH NC     PTSUNNY   48  37  65 E6        30.28R
ATLANTA GA     MOCLDY    56  48  74 SE12      30.11S
NEW ORLEANS LA LGT RAIN  61  60  97 S8        29.96R
OKLAHOMA CITY  FAIR      46  42  86 NW12      29.99R
ALBUQUERQUE NM FAIR      44  33  65 N9        30.34S
SALT LAKE CITY FAIR      52  38  58 S21G33    30.03S
LOS ANGELES CA MOCLDY    58  56  93 CALM      30.29S
BOISE ID       FAIR      46  36  68 SE10G17   29.83S
SEATTLE WA     LGT RAIN  41  40  96 N7        29.72R
$$

*** WEATHER ACROSS MANITOBA...SASKATCHEWAN AND ONTARIO ***
                ***ONTARIO***

CITY           SKY/WX    TMP DP  RH WIND       PRES   REMARKS
GERALDTON      LGT RAIN  37  36  93 W14G24    29.48R
THUNDER BAY    MOCLDY    37  32  81 W15G24    29.69R
SIOUX LOOKOUT  CLOUDY    34  28  80 W8        29.65R
TORONTO        MOCLDY    36  25  64 E3        30.06F
BIG TROUT LK   FLURRIES  32  30  93 W17G28    29.27R WCI  21
PICKLE LAKE    FLURRIES  34  32  93 W16G28    29.46R WCI  23
DRYDEN         CLOUDY    32  30  93 W9        29.67R WCI  24
KENORA         CLOUDY    32  30  93 SW7       29.70R
$$
                *** MANITOBA***

CITY           SKY/WX    TMP DP  RH WIND       PRES   REMARKS
BRANDON        CLOUDY    32  32 100 CALM      29.68S
DAUPHIN        CLOUDY    34  30  86 W6        29.68S
ISLAND LAKE    FLURRIES  28  25  86 W18G25    29.49R WCI  16
PILOT MOUND      N/A     30  30 100 E2          N/A
THE PAS        CLOUDY    30  25  80 NW10      29.64R WCI  21
THOMPSON       CLOUDY    18  14  86 W12       29.51S WCI   5
WINNIPEG       MOCLDY    32  30  93 SW5       29.72S
LYNN LAKE      CLOUDY    16  14  93 NW8       29.55F WCI   5
CHURCHILL      LGT SNOW  12  10  92 NE20G25   29.46F VSB 1   WCI  -6
GILLAM         FLURRIES  12   7  79 NW13G21   29.41R WCI  -3
$$
                ***SASKATCHEWAN***

CITY           SKY/WX    TMP DP  RH WIND       PRES   REMARKS
ESTEVAN        PTCLDY    28  27  93 SE7       29.63S WCI  21
KINDERSLEY     CLOUDY    28  28 100 NE7       29.66R WCI  21
LLOYDMINSTER   CLOUDY    28  27  93 E3        29.66S
PRINCE ALBERT  CLOUDY    32  25  74 W3        29.68R
REGINA         CLOUDY    34  30  86 E7        29.62S
YORKTON        PTCLDY    30  28  93 SW3       29.65S
N. BATTLEFORD  CLOUDY    32  27  80 CALM      29.70R
LA RONGE       CLOUDY    28  25  86 W6        29.64S WCI  22
SASKATOON      CLOUDY    32  27  80 N7        29.70R
SWIFT CURRENT  CLOUDY    30  28  93 NE9       29.57S FOG     WCI  22
$$
NOTE: THESE ARE AUTOMATED STATIONS WITH LIMITED QUALITY CONTROL
      "FAIR" INDICATES FEW OR NO CLOUDS BELOW 12,000 FEET WITH NO
      SIGNIFICANT WEATHER AND/OR OBSTRUCTIONS TO VISIBILITY.
      SKY/WX - SKY CONDITION AND SIGNIFICANT WEATHER.
      TMP - AIR TEMPERATURE.    DP   - DEWPOINT TEMPERATURE.
      RH  - RELATIVE HUMIDITY.  PRES - PRESSURE.
      HX  - HEAT INDEX.         WCI  - WIND CHILL INDEX.
$



USA.gov is the U.S. government's official web portal to all federal, state and local government web resources and services.